map of BUS home
BUS - Airport
Location
City:  Batumi, Ajaria, Georgia
Name:Batumi International Airport
ICAO:UGSB
IATA:BUS

Details
Type:Airport (Aerodrome, Airfield)
Use:International (customs port of entry)
Latitude:4136'37"N (41.610278)
Longitude:4135'59"E (41.599694)
Datum:WGS 1984
Elevation:105 ft (32 m)
Variation:6.52E (WMM2015 magnetic declination)
0.08 annual change
Runways:1
Longest:7325 × 150 ft (2233 × 45.5 m), paved

Time
Time Zone:UTC+3 (DST+4)

Weather
METAR:UGSB 190130Z AUTO 13008KT 9999 FEW039 BKN048 OVC062 23/21 Q1013 R13/CLRD70 NOSIG
TAF:UGSB 181100Z 1812/1912 25008KT 9999 FEW025 SCT060 TX30/1812Z TN22/1901Z PROB40
TEMPO 1815/1820 VRB14KT TSRA BKN020CB
BECMG 1816/1819 12010KT
BECMG 1904/1906 26007KT

Related Locations
Nearby:
Farthest:GMR: 11137 mi / 17924 km
Mangareva [Totegegie], Gambier Islands, PF

Find:

   beyond  
but within

Other Information
Maps:
NOTAMs:
Links:
Sources:

  
flag of Georgia
flag of Ajaria
  

Sectional Chart

Flight Planning
at skyvector.com

Satellite Image

Google Maps Satellite view

 

Copyright © 2004-2017 Karl L. Swartz. All rights reserved.
The Great Circle Mapper name and logo are trademarks of the Great Circle Mapper.
All other trademarks mentioned herein belong to their respective owners.
Please see credits for attibutions and further copyright information.

  Follow gcmap on Facebook Follow gcmap on Twitter Follow gcmap on Google+ GCmap on LinkedIn

hCard Microformat

Geo Microformat